| time (UTC) | temp F | wind direction | speed knots | gust knots | rain 1hr in | rain 24hr in | rain mn in | humidity % | barometer mb |
| 20260506122132 | 41 | 333 | 2.6 | 6.1 | 0.00 | 0.00 | 0.00 | 65 | 1009.6 |
| 20260506121132 | 40 | 329 | 2.6 | 5.2 | 0.00 | 0.00 | 0.00 | 67 | 1009.3 |
| 20260506120132 | 40 | 320 | 2.6 | 4.3 | 0.00 | 0.00 | 0.00 | 68 | 1009.2 |
| 20260506115132 | 40 | 348 | 3.5 | 6.1 | 0.00 | 0.00 | 0.00 | 68 | 1009.1 |
| 20260506114605 | 40 | 22 | 2.6 | 4.3 | 0.00 | 0.00 | 0.00 | 70 | 1008.9 |
| 20260506113132 | 40 | 24 | 3.5 | 6.1 | 0.00 | 0.00 | 0.00 | 71 | 1008.9 |
| 20260506112125 | 40 | 355 | 3.5 | 6.1 | 0.00 | 0.00 | 0.00 | 70 | 1008.6 |
| 20260506111126 | 40 | 355 | 2.6 | 6.1 | 0.00 | 0.00 | 0.00 | 72 | 1008.3 |
| 20260506110123 | 40 | 0 | 2.6 | 5.2 | 0.00 | 0.00 | 0.00 | 73 | 1008.1 |
| 20260506105124 | 40 | 28 | 3.5 | 5.2 | 0.00 | 0.00 | 0.00 | 74 | 1008.1 |
| 20260506104123 | 40 | 350 | 2.6 | 6.1 | 0.00 | 0.00 | 0.00 | 75 | 1008.0 |
| 20260506103124 | 40 | 355 | 3.5 | 7.0 | 0.00 | 0.00 | 0.00 | 76 | 1007.9 |
| 20260506102610 | 40 | 0 | 3.5 | 7.0 | 0.00 | 0.00 | 0.00 | 76 | 1007.8 |
| 20260506101119 | 40 | 24 | 3.5 | 6.1 | 0.00 | 0.00 | 0.00 | 77 | 1007.9 |
| 20260506100119 | 40 | 11 | 3.5 | 7.8 | 0.00 | 0.00 | 0.00 | 77 | 1007.9 |
| 20260506095119 | 40 | 355 | 4.3 | 7.8 | 0.00 | 0.00 | 0.00 | 76 | 1007.8 |
| 20260506094119 | 41 | 12 | 4.3 | 7.0 | 0.00 | 0.00 | 0.00 | 76 | 1007.9 |
| 20260506094036 | 41 | 9 | 4.3 | 7.8 | 0.00 | 0.00 | 0.00 | 76 | 1007.9 |
| 20260506092113 | 41 | 0 | 4.3 | 7.8 | 0.00 | 0.00 | 0.00 | 74 | 1007.9 |
| 20260506091113 | 42 | 0 | 4.3 | 8.7 | 0.00 | 0.00 | 0.00 | 73 | 1007.8 |
| 20260506090113 | 42 | 0 | 3.5 | 7.0 | 0.00 | 0.00 | 0.00 | 73 | 1008.0 |
| 20260506085113 | 42 | 348 | 3.5 | 6.1 | 0.00 | 0.00 | 0.00 | 74 | 1008.2 |
| 20260506084113 | 42 | 5 | 1.7 | 4.3 | 0.00 | 0.00 | 0.00 | 77 | 1008.0 |
| 20260506083114 | 42 | 321 | 0.9 | 2.6 | 0.00 | 0.00 | 0.00 | 78 | 1007.9 |
| 20260506082113 | 42 | 313 | 1.7 | 3.5 | 0.00 | 0.00 | 0.00 | 79 | 1007.8 |
| 20260506081113 | 42 | 340 | 1.7 | 3.5 | 0.00 | 0.00 | 0.00 | 79 | 1007.9 |
| 20260506080113 | 42 | 326 | 1.7 | 3.5 | 0.00 | 0.00 | 0.00 | 79 | 1008.1 |
| 20260506073113 | 42 | 336 | 0.9 | 2.6 | 0.00 | 0.00 | 0.00 | 81 | 1007.7 |
| 20260506072111 | 42 | 340 | 1.7 | 2.6 | 0.00 | 0.00 | 0.00 | 81 | 1007.3 |
| 20260506071110 | 42 | 325 | 1.7 | 3.5 | 0.00 | 0.00 | 0.00 | 81 | 1007.5 |
| 20260506070112 | 42 | 324 | 1.7 | 4.3 | 0.00 | 0.00 | 0.00 | 83 | 1007.5 |
| 20260506062109 | 41 | 155 | 0.0 | 0.0 | 0.00 | 0.00 | 0.00 | 86 | 1007.6 |
| 20260506061111 | 41 | 155 | 0.0 | 0.0 | 0.00 | 0.00 | 0.00 | 86 | 1007.8 |
| 20260506044059 | 41 | 155 | 0.0 | 0.0 | 0.00 | 0.26 | 0.00 | 83 | 1008.1 |
| 20260506043053 | 41 | 155 | 0.0 | 0.0 | 0.00 | 0.26 | 0.00 | 82 | 1008.0 |
| 20260506042053 | 41 | 155 | 0.0 | 0.0 | 0.00 | 0.26 | 0.00 | 82 | 1007.9 |
| 20260506041053 | 42 | 155 | 0.0 | 0.0 | 0.00 | 0.26 | 0.00 | 81 | 1007.9 |
| 20260506040058 | 42 | 151 | 0.0 | 0.0 | 0.00 | 0.26 | 0.00 | 81 | 1007.8 |
| 20260506035538 | 42 | 151 | 0.0 | 0.0 | 0.00 | 0.26 | 0.26 | 81 | 1007.8 |
| 20260506034053 | 42 | 151 | 0.0 | 0.0 | 0.00 | 0.26 | 0.26 | 81 | 1007.9 |
| 20260506033539 | 42 | 239 | 0.0 | 0.0 | 0.00 | 0.26 | 0.26 | 80 | 1007.8 |
| 20260506032053 | 42 | 259 | 0.0 | 0.0 | 0.00 | 0.26 | 0.26 | 80 | 1007.7 |
| 20260506031054 | 42 | 197 | 0.0 | 0.0 | 0.00 | 0.26 | 0.26 | 80 | 1007.7 |
| 20260506030051 | 42 | 197 | 0.0 | 0.0 | 0.00 | 0.26 | 0.26 | 80 | 1007.8 |
| 20260506025534 | 42 | 197 | 0.0 | 0.0 | 0.00 | 0.26 | 0.26 | 79 | 1007.7 |
| 20260506024533 | 42 | 197 | 0.0 | 0.0 | 0.00 | 0.26 | 0.26 | 78 | 1007.8 |
| 20260506023052 | 42 | 197 | 0.0 | 0.0 | 0.00 | 0.26 | 0.26 | 77 | 1007.7 |
| 20260506022051 | 42 | 238 | 0.0 | 0.0 | 0.00 | 0.26 | 0.26 | 77 | 1007.6 |
| 20260506021052 | 43 | 202 | 0.0 | 0.0 | 0.00 | 0.26 | 0.26 | 78 | 1007.8 |
| 20260506020536 | 43 | 202 | 0.0 | 0.0 | 0.00 | 0.26 | 0.26 | 77 | 1008.1 |
| 20260506015045 | 44 | 202 | 0.0 | 0.0 | 0.00 | 0.26 | 0.26 | 76 | 1007.9 |
| 20260506014524 | 44 | 202 | 0.0 | 0.0 | 0.00 | 0.26 | 0.26 | 75 | 1007.7 |
| 20260506013044 | 44 | 202 | 0.0 | 0.0 | 0.00 | 0.26 | 0.26 | 74 | 1007.8 |
| 20260506012045 | 45 | 202 | 0.0 | 0.0 | 0.00 | 0.26 | 0.26 | 74 | 1007.5 |
| 20260506011526 | 45 | 156 | 0.0 | 0.0 | 0.00 | 0.26 | 0.26 | 73 | 1007.3 |
| 20260506010047 | 45 | 168 | 0.0 | 0.0 | 0.00 | 0.26 | 0.26 | 70 | 1007.1 |
| 20260506005045 | 45 | 165 | 0.9 | 2.6 | 0.00 | 0.26 | 0.26 | 72 | 1007.1 |
| 20260506004532 | 45 | 183 | 1.7 | 4.3 | 0.00 | 0.26 | 0.26 | 71 | 1007.0 |
| 20260506003043 | 45 | 167 | 0.0 | 4.3 | 0.00 | 0.26 | 0.26 | 69 | 1006.9 |
| 20260506002043 | 46 | 304 | 0.9 | 2.6 | 0.00 | 0.26 | 0.26 | 66 | 1006.8 |
| 20260506001042 | 46 | 330 | 0.9 | 3.5 | 0.00 | 0.26 | 0.26 | 65 | 1006.7 |
| 20260506000043 | 47 | 284 | 0.9 | 2.6 | 0.00 | 0.26 | 0.26 | 64 | 1006.6 |
| 20260505235043 | 47 | 313 | 2.6 | 5.2 | 0.00 | 0.26 | 0.26 | 64 | 1006.4 |
| 20260505234044 | 48 | 325 | 2.6 | 6.1 | 0.00 | 0.26 | 0.26 | 63 | 1006.5 |
| 20260505233042 | 49 | 355 | 2.6 | 7.0 | 0.00 | 0.26 | 0.26 | 60 | 1006.4 |
| 20260505232043 | 50 | 302 | 2.6 | 6.1 | 0.00 | 0.26 | 0.26 | 60 | 1006.4 |
| 20260505231522 | 51 | 292 | 1.7 | 7.0 | 0.00 | 0.26 | 0.26 | 59 | 1006.4 |
| 20260505230520 | 52 | 355 | 4.3 | 7.0 | 0.00 | 0.26 | 0.26 | 57 | 1006.3 |
| 20260505225037 | 53 | 349 | 1.7 | 6.1 | 0.00 | 0.26 | 0.26 | 56 | 1006.5 |
| 20260505224904 | 53 | 240 | 2.6 | 5.2 | 0.00 | 0.26 | 0.26 | 53 | 1006.4 |
| 20260505224100 | 53 | 117 | 1.7 | 4.3 | 0.00 | 0.26 | 0.26 | 55 | 1006.3 |
| 20260505222038 | 53 | 346 | 2.6 | 6.1 | 0.00 | 0.26 | 0.26 | 58 | 1006.6 |
| 20260505221036 | 52 | 27 | 1.7 | 5.2 | 0.00 | 0.26 | 0.26 | 53 | 1006.5 |
| 20260505220515 | 53 | 31 | 3.5 | 6.1 | 0.00 | 0.26 | 0.26 | 52 | 1006.6 |
| 20260505215036 | 53 | 342 | 2.6 | 6.1 | 0.00 | 0.26 | 0.26 | 56 | 1006.3 |
| 20260505214036 | 53 | 346 | 1.7 | 5.2 | 0.00 | 0.26 | 0.26 | 53 | 1006.3 |
| 20260505213036 | 53 | 326 | 2.6 | 7.0 | 0.00 | 0.26 | 0.26 | 53 | 1006.4 |
| 20260505212036 | 53 | 333 | 4.3 | 7.8 | 0.00 | 0.26 | 0.26 | 52 | 1006.4 |
| 20260505211036 | 53 | 335 | 2.6 | 9.6 | 0.00 | 0.26 | 0.26 | 55 | 1006.3 |
| 20260505210033 | 54 | 342 | 4.3 | 8.7 | 0.00 | 0.26 | 0.26 | 52 | 1006.2 |
| 20260505205033 | 54 | 355 | 2.6 | 7.8 | 0.00 | 0.26 | 0.26 | 55 | 1005.9 |
| 20260505204031 | 55 | 257 | 3.5 | 8.7 | 0.00 | 0.26 | 0.26 | 52 | 1006.1 |
| 20260505203032 | 54 | 224 | 2.6 | 7.8 | 0.00 | 0.26 | 0.26 | 53 | 1006.0 |
| 20260505202034 | 54 | 280 | 2.6 | 6.1 | 0.00 | 0.26 | 0.26 | 53 | 1006.0 |
| 20260505201034 | 55 | 265 | 3.5 | 9.6 | 0.00 | 0.26 | 0.26 | 51 | 1005.9 |
| 20260505200033 | 55 | 281 | 2.6 | 6.1 | 0.00 | 0.26 | 0.26 | 51 | 1005.9 |
| 20260505195034 | 54 | 326 | 3.5 | 9.6 | 0.00 | 0.26 | 0.26 | 54 | 1005.7 |
| 20260505194033 | 54 | 247 | 3.5 | 11.3 | 0.00 | 0.26 | 0.26 | 55 | 1005.6 |
| 20260505193032 | 55 | 142 | 3.5 | 9.6 | 0.00 | 0.26 | 0.26 | 50 | 1005.6 |
| 20260505192029 | 55 | 178 | 3.5 | 10.4 | 0.00 | 0.26 | 0.26 | 51 | 1005.8 |
| 20260505191024 | 55 | 0 | 2.6 | 7.8 | 0.00 | 0.26 | 0.26 | 52 | 1005.8 |
| 20260505190025 | 54 | 217 | 2.6 | 8.7 | 0.00 | 0.26 | 0.26 | 53 | 1005.6 |
| 20260505185024 | 53 | 246 | 3.5 | 7.8 | 0.00 | 0.26 | 0.26 | 53 | 1005.5 |
| 20260505184024 | 53 | 243 | 3.5 | 9.6 | 0.00 | 0.26 | 0.26 | 58 | 1005.5 |
| 20260505183510 | 53 | 329 | 3.5 | 7.8 | 0.00 | 0.26 | 0.26 | 55 | 1005.5 |
| 20260505182025 | 53 | 212 | 2.6 | 7.8 | 0.00 | 0.26 | 0.26 | 55 | 1005.5 |
| 20260505181024 | 53 | 242 | 1.7 | 7.8 | 0.00 | 0.26 | 0.26 | 58 | 1005.4 |
| 20260505180023 | 52 | 150 | 3.5 | 9.6 | 0.00 | 0.26 | 0.26 | 59 | 1005.4 |
| 20260505175024 | 52 | 175 | 3.5 | 9.6 | 0.00 | 0.26 | 0.26 | 61 | 1005.1 |
| 20260505174023 | 51 | 306 | 3.5 | 9.6 | 0.00 | 0.26 | 0.26 | 60 | 1005.1 |
| 20260505173018 | 50 | 347 | 3.5 | 7.8 | 0.00 | 0.26 | 0.26 | 66 | 1005.1 |
| 20260505172018 | 49 | 327 | 4.3 | 9.6 | 0.00 | 0.26 | 0.26 | 65 | 1005.1 |
| 20260505171507 | 48 | 23 | 3.5 | 7.8 | 0.00 | 0.26 | 0.26 | 66 | 1005.1 |
| 20260505170018 | 48 | 237 | 3.5 | 9.6 | 0.00 | 0.26 | 0.26 | 64 | 1005.1 |
| 20260505165018 | 48 | 5 | 3.5 | 7.8 | 0.00 | 0.26 | 0.26 | 65 | 1005.1 |
| 20260505164018 | 48 | 351 | 1.7 | 6.1 | 0.00 | 0.26 | 0.26 | 65 | 1005.0 |
| 20260505163018 | 49 | 5 | 2.6 | 5.2 | 0.00 | 0.26 | 0.26 | 63 | 1004.8 |
| 20260505162018 | 49 | 346 | 2.6 | 7.8 | 0.00 | 0.26 | 0.26 | 64 | 1004.7 |
| 20260505161009 | 49 | 331 | 3.5 | 8.7 | 0.00 | 0.26 | 0.26 | 64 | 1004.4 |
| 20260505160452 | 50 | 331 | 2.6 | 7.0 | 0.00 | 0.26 | 0.26 | 60 | 1004.7 |
| 20260505152442 | 51 | 319 | 2.6 | 8.7 | 0.00 | 0.26 | 0.26 | 62 | 1004.1 |
| 20260505151009 | 50 | 15 | 3.5 | 10.4 | 0.00 | 0.26 | 0.26 | 61 | 1003.6 |
| 20260505124956 | 46 | 315 | 1.7 | 5.2 | 0.00 | 0.26 | 0.26 | 83 | 1002.0 |
| 20260505123955 | 45 | 297 | 1.7 | 5.2 | 0.00 | 0.26 | 0.26 | 84 | 1002.0 |
| 20260505122955 | 45 | 171 | 0.9 | 2.6 | 0.00 | 0.26 | 0.26 | 86 | 1001.6 |